Station Historical Data
Daily Summary for December 5, 2017 Units:  Metric    English   Both
« Previous Day
Next Day »
Daily Weekly Monthly Yearly Custom
  High: Low: Average:
Temperature: 11.7 °C 1.8 °C 8.4 °C
Dew Point: 8.2 °C -5.8 °C 3.3 °C
Humidity: 84% 48% 71%
Wind Speed: 41.8km/h 3.2km/h 16.4km/h
Wind Gust: 64.4km/h - -
Wind- - SSW
Pressure: 1012.8 hPa 1005.3 hPa -
Precipitation: 12.19 mm    
Historical Graphs
 
 
Tabular Data for December 5, 2017
Time Temperature Dew Point Pressure Wind Wind Speed Wind Gust Humidity Rainfall Rate (Hourly)
00:04 11.3 °C 1.3 °C 1012.4 hPa SSE 11.3 km/h 20.9 km/h 50% 0 mm
00:09 11.3 °C 1.2 °C 1012.8 hPa South 12.9 km/h 20.9 km/h 50% 0 mm
00:14 11.3 °C 1.2 °C 1012.8 hPa SW 9.7 km/h 22.5 km/h 50% 0 mm
00:19 11.2 °C 1.2 °C 1012.8 hPa South 11.3 km/h 22.5 km/h 50% 0 mm
00:24 11.3 °C 1.2 °C 1012.4 hPa South 12.9 km/h 27.4 km/h 50% 0 mm
00:29 11.3 °C 1.3 °C 1012.4 hPa South 14.5 km/h 29 km/h 50% 0 mm
00:34 11.3 °C 1 °C 1012.4 hPa South 14.5 km/h 29 km/h 49% 0 mm
00:39 11.3 °C 1.2 °C 1012.4 hPa South 12.9 km/h 29 km/h 50% 0 mm
00:44 11.2 °C 1.2 °C 1012.4 hPa South 9.7 km/h 20.9 km/h 50% 0 mm
00:49 11.2 °C 1.2 °C 1012.4 hPa South 12.9 km/h 20.9 km/h 50% 0 mm
00:54 11.2 °C 1.7 °C 1012.1 hPa South 12.9 km/h 29 km/h 52% 0 mm
00:59 11.2 °C 1.4 °C 1012.1 hPa SSE 3.2 km/h 19.3 km/h 51% 0 mm
01:04 11.1 °C 1.3 °C 1012.1 hPa South 9.7 km/h 20.9 km/h 51% 0 mm
01:09 11.2 °C 1.2 °C 1011.7 hPa SSE 22.5 km/h 29 km/h 50% 0 mm
01:19 11.3 °C 1 °C 1012.1 hPa South 11.3 km/h 30.6 km/h 49% 0 mm
01:24 11.3 °C 1 °C 1011.7 hPa South 11.3 km/h 22.5 km/h 49% 0 mm
01:29 11.3 °C 1 °C 1011.7 hPa South 11.3 km/h 17.7 km/h 49% 0 mm
01:34 11.4 °C 1.1 °C 1011.7 hPa South 11.3 km/h 24.1 km/h 49% 0 mm
01:39 11.4 °C 1.1 °C 1011.7 hPa South 8 km/h 20.9 km/h 49% 0 mm
01:44 11.4 °C 0.8 °C 1012.4 hPa SSW 9.7 km/h 20.9 km/h 48% 0 mm
01:49 11.4 °C 0.8 °C 1012.4 hPa SSW 8 km/h 20.9 km/h 48% 0 mm
01:54 11.5 °C 0.8 °C 1012.4 hPa West 8 km/h 19.3 km/h 48% 0 mm
01:59 11.4 °C 0.8 °C 1012.1 hPa SW 17.7 km/h 25.7 km/h 48% 0 mm
02:04 11.5 °C 0.8 °C 1012.1 hPa South 12.9 km/h 25.7 km/h 48% 0 mm
02:09 11.6 °C 1.2 °C 1011.7 hPa SSE 12.9 km/h 25.7 km/h 49% 0 mm
02:14 11.5 °C 1.7 °C 1011.7 hPa South 11.3 km/h 25.7 km/h 51% 0 mm
02:19 11.3 °C 1.8 °C 1011.7 hPa South 11.3 km/h 25.7 km/h 52% 0 mm
02:24 11.2 °C 1.9 °C 1011.7 hPa South 11.3 km/h 25.7 km/h 53% 0 mm
02:29 11 °C 2.1 °C 1011.4 hPa SSW 24.1 km/h 25.7 km/h 54% 0 mm
02:34 10.8 °C 2.4 °C 1011.4 hPa South 11.3 km/h 25.7 km/h 56% 0 mm
02:39 10.7 °C 2.2 °C 1011.4 hPa South 12.9 km/h 25.7 km/h 56% 0 mm
02:44 10.6 °C 2.6 °C 1011.4 hPa SSE 12.9 km/h 24.1 km/h 58% 0 mm
02:49 10.3 °C 3.1 °C 1011.4 hPa South 14.5 km/h 25.7 km/h 61% 0.25 mm
02:54 10.1 °C 3.4 °C 1011.4 hPa SSE 8 km/h 29 km/h 63% 0.51 mm
02:59 9.9 °C 3.4 °C 1011.7 hPa South 11.3 km/h 29 km/h 64% 0.51 mm
03:04 9.7 °C 3.7 °C 1011.4 hPa SSE 6.4 km/h 20.9 km/h 66% 0.76 mm
03:09 9.6 °C 3.6 °C 1011.1 hPa South 11.3 km/h 25.7 km/h 66% 0.76 mm
03:14 9.5 °C 3.9 °C 1011.1 hPa South 12.9 km/h 27.4 km/h 68% 0.76 mm
03:24 9.2 °C 4.1 °C 1010.7 hPa South 12.9 km/h 29 km/h 70% 1.02 mm
03:29 9.2 °C 4.2 °C 1010.7 hPa South 11.3 km/h 20.9 km/h 71% 1.27 mm
03:34 9.1 °C 4.1 °C 1010.7 hPa South 4.8 km/h 19.3 km/h 71% 1.27 mm
03:39 9.1 °C 4.3 °C 1010.7 hPa South 8 km/h 25.7 km/h 72% 1.52 mm
03:49 8.9 °C 4.4 °C 1010.4 hPa South 12.9 km/h 25.7 km/h 73% 1.78 mm
03:54 8.8 °C 4.4 °C 1010.4 hPa SSW 8 km/h 14.5 km/h 74% 1.78 mm
03:59 8.7 °C 4.5 °C 1010.4 hPa SSW 11.3 km/h 12.9 km/h 75% 2.03 mm
04:09 8.5 °C 4.3 °C 1010.4 hPa South 9.7 km/h 19.3 km/h 75% 2.03 mm
04:14 8.6 °C 4.6 °C 1010.4 hPa South 9.7 km/h 20.9 km/h 76% 2.03 mm
04:19 8.6 °C 4.6 °C 1010.4 hPa South 9.7 km/h 20.9 km/h 76% 2.03 mm
04:24 8.6 °C 4.6 °C 1010.4 hPa South 11.3 km/h 24.1 km/h 76% 2.03 mm
04:29 8.6 °C 4.6 °C 1010.4 hPa South 9.7 km/h 24.1 km/h 76% 2.29 mm
04:34 8.6 °C 4.6 °C 1010.4 hPa South 12.9 km/h 19.3 km/h 76% 2.54 mm
04:39 8.6 °C 4.8 °C 1010.4 hPa South 11.3 km/h 22.5 km/h 77% 2.54 mm
04:44 8.6 °C 4.8 °C 1010.4 hPa South 12.9 km/h 27.4 km/h 77% 2.29 mm
04:49 8.6 °C 4.8 °C 1010.4 hPa South 8 km/h 14.5 km/h 77% 2.29 mm
04:54 8.6 °C 4.8 °C 1010.4 hPa SSW 11.3 km/h 12.9 km/h 77% 2.03 mm
04:59 8.5 °C 4.7 °C 1010 hPa South 8 km/h 14.5 km/h 77% 2.03 mm
05:04 8.5 °C 4.9 °C 1010 hPa SSE 6.4 km/h 19.3 km/h 78% 2.29 mm
05:09 8.3 °C 4.9 °C 1009.7 hPa South 9.7 km/h 19.3 km/h 79% 2.29 mm
05:14 8.2 °C 5 °C 1009.7 hPa South 9.7 km/h 22.5 km/h 80% 2.54 mm
05:19 8.2 °C 5 °C 1010 hPa South 11.3 km/h 24.1 km/h 80% 2.79 mm
05:24 8.2 °C 5.2 °C 1010 hPa South 11.3 km/h 27.4 km/h 81% 2.79 mm
05:29 8.2 °C 5.2 °C 1010 hPa SSW 11.3 km/h 22.5 km/h 81% 2.79 mm
05:34 8.2 °C 5.2 °C 1009.7 hPa South 12.9 km/h 22.5 km/h 81% 2.79 mm
05:39 8.2 °C 5.3 °C 1009.7 hPa South 12.9 km/h 27.4 km/h 82% 3.05 mm
05:44 8.1 °C 5.2 °C 1009.7 hPa South 11.3 km/h 27.4 km/h 82% 3.3 mm
05:49 8.1 °C 5.4 °C 1009.7 hPa South 12.9 km/h 19.3 km/h 83% 3.05 mm
05:54 8.1 °C 5.4 °C 1010 hPa South 14.5 km/h 22.5 km/h 83% 3.05 mm
05:59 8.1 °C 5.4 °C 1009.7 hPa SSW 9.7 km/h 24.1 km/h 83% 3.05 mm
06:04 8.1 °C 5.4 °C 1010 hPa South 12.9 km/h 29 km/h 83% 3.3 mm
06:09 8.1 °C 5.4 °C 1009.7 hPa South 11.3 km/h 29 km/h 83% 3.3 mm
06:14 8.1 °C 5.5 °C 1009.7 hPa South 11.3 km/h 25.7 km/h 84% 3.05 mm
06:19 8.1 °C 5.6 °C 1009.7 hPa South 12.9 km/h 30.6 km/h 84% 2.79 mm
06:24 8.2 °C 5.7 °C 1009.4 hPa South 9.7 km/h 24.1 km/h 84% 2.79 mm
06:29 8.3 °C 5.7 °C 1009.4 hPa South 17.7 km/h 24.1 km/h 84% 2.54 mm
06:34 8.3 °C 5.6 °C 1009.4 hPa South 12.9 km/h 24.1 km/h 83% 2.29 mm
06:39 8.4 °C 5.7 °C 1009.7 hPa South 12.9 km/h 25.7 km/h 83% 2.54 mm
06:44 8.3 °C 5.6 °C 1009.4 hPa South 11.3 km/h 25.7 km/h 83% 2.29 mm
06:49 8.4 °C 5.7 °C 1009.4 hPa South 16.1 km/h 17.7 km/h 83% 2.29 mm
06:54 8.4 °C 5.7 °C 1009.4 hPa South 6.4 km/h 20.9 km/h 83% 2.29 mm
07:04 8.7 °C 5.8 °C 1009.4 hPa South 11.3 km/h 27.4 km/h 82% 1.52 mm
07:09 8.8 °C 5.9 °C 1009.4 hPa South 12.9 km/h 27.4 km/h 82% 1.02 mm
07:14 9 °C 5.9 °C 1009.7 hPa SSW 11.3 km/h 24.1 km/h 81% 0.76 mm
07:19 9.1 °C 6 °C 1009.7 hPa WSW 6.4 km/h 22.5 km/h 81% 0.76 mm
07:24 9.2 °C 6.1 °C 1009.7 hPa South 24.1 km/h 35.4 km/h 81% 1.02 mm
07:29 9.2 °C 6.3 °C 1009.7 hPa SW 12.9 km/h 19.3 km/h 82% 1.02 mm
07:34 9.2 °C 6.3 °C 1009.7 hPa SSW 11.3 km/h 27.4 km/h 82% 0.51 mm
07:39 9.3 °C 6.4 °C 1009.7 hPa SSW 12.9 km/h 32.2 km/h 82% 0.51 mm
07:44 9.4 °C 6.7 °C 1009.7 hPa SSW 12.9 km/h 32.2 km/h 83% 0.76 mm
07:49 9.5 °C 6.8 °C 1009.4 hPa WSW 4.8 km/h 37 km/h 83% 0.76 mm
07:54 9.6 °C 6.9 °C 1009.7 hPa South 19.3 km/h 29 km/h 83% 0.76 mm
07:59 9.6 °C 6.9 °C 1009.7 hPa South 12.9 km/h 27.4 km/h 83% 1.02 mm
08:04 9.6 °C 6.9 °C 1009.7 hPa South 12.9 km/h 30.6 km/h 83% 1.02 mm
08:09 9.6 °C 6.9 °C 1009.7 hPa SSW 14.5 km/h 33.8 km/h 83% 1.27 mm
08:14 9.6 °C 6.9 °C 1009.7 hPa SSW 14.5 km/h 33.8 km/h 83% 1.27 mm
08:19 9.6 °C 6.8 °C 1009.7 hPa SSW 14.5 km/h 32.2 km/h 83% 1.52 mm
08:24 9.6 °C 6.8 °C 1009.4 hPa South 17.7 km/h 29 km/h 83% 1.27 mm
08:29 9.6 °C 6.8 °C 1009.4 hPa South 6.4 km/h 27.4 km/h 83% 1.52 mm
08:34 9.5 °C 6.9 °C 1009 hPa SSW 16.1 km/h 30.6 km/h 84% 1.27 mm
08:39 9.5 °C 6.9 °C 1009 hPa South 16.1 km/h 30.6 km/h 84% 1.27 mm
08:44 9.5 °C 6.9 °C 1009 hPa South 14.5 km/h 41.8 km/h 84% 1.27 mm
08:49 9.4 °C 6.9 °C 1009 hPa South 14.5 km/h 41.8 km/h 84% 1.27 mm
08:54 9.4 °C 6.8 °C 1009 hPa SSW 8 km/h 29 km/h 84% 1.52 mm
08:59 9.4 °C 6.8 °C 1009 hPa SSW 14.5 km/h 33.8 km/h 84% 1.27 mm
09:04 9.3 °C 6.8 °C 1008.7 hPa South 14.5 km/h 33.8 km/h 84% 1.27 mm
09:09 9.4 °C 6.8 °C 1008.7 hPa SSW 16.1 km/h 37 km/h 84% 1.27 mm
09:14 9.4 °C 6.9 °C 1008.7 hPa South 11.3 km/h 33.8 km/h 84% 1.27 mm
09:19 9.5 °C 6.9 °C 1008.7 hPa South 14.5 km/h 30.6 km/h 84% 1.02 mm
09:24 9.6 °C 7 °C 1008.7 hPa SSW 11.3 km/h 32.2 km/h 84% 1.02 mm
09:29 9.7 °C 6.9 °C 1009 hPa SSW 27.4 km/h 35.4 km/h 83% 0.76 mm
09:34 9.7 °C 7 °C 1009 hPa SSW 17.7 km/h 35.4 km/h 83% 0.76 mm
09:39 9.8 °C 7.1 °C 1009 hPa South 17.7 km/h 35.4 km/h 83% 0.76 mm
09:44 9.8 °C 6.9 °C 1008.7 hPa South 14.5 km/h 35.4 km/h 82% 0.51 mm
09:49 9.9 °C 6.9 °C 1008.4 hPa South 14.5 km/h 29 km/h 82% 0.51 mm
09:54 9.9 °C 7 °C 1008.7 hPa South 14.5 km/h 32.2 km/h 82% 0.25 mm
09:59 9.9 °C 7 °C 1008.7 hPa SSW 11.3 km/h 24.1 km/h 82% 0.25 mm
10:04 10.1 °C 7.1 °C 1008.7 hPa SSW 14.5 km/h 37 km/h 82% 0.25 mm
10:09 10.2 °C 7.2 °C 1008.4 hPa South 16.1 km/h 37 km/h 82% 0 mm
10:14 10.3 °C 7.3 °C 1008.7 hPa SSW 8 km/h 32.2 km/h 82% 0 mm
10:19 10.4 °C 7.3 °C 1008.7 hPa South 22.5 km/h 38.6 km/h 81% 0 mm
10:24 10.4 °C 7.3 °C 1008.7 hPa WSW 16.1 km/h 29 km/h 81% 0 mm
10:29 10.4 °C 7.3 °C 1008.4 hPa SSW 19.3 km/h 30.6 km/h 81% 0 mm
10:34 10.6 °C 7.2 °C 1008.4 hPa SSW 14.5 km/h 33.8 km/h 80% 0 mm
10:39 10.6 °C 7.3 °C 1008.7 hPa SSW 17.7 km/h 33.8 km/h 80% 0 mm
10:44 10.7 °C 7.3 °C 1008.4 hPa SSW 16.1 km/h 46.7 km/h 80% 0 mm
10:49 10.8 °C 7.4 °C 1008 hPa South 17.7 km/h 46.7 km/h 80% 0 mm
10:54 10.9 °C 7.6 °C 1008 hPa South 17.7 km/h 41.8 km/h 80% 0 mm
10:59 11.1 °C 7.6 °C 1007.7 hPa SSW 16.1 km/h 30.6 km/h 79% 0 mm
11:04 11.1 °C 7.6 °C 1007.3 hPa South 16.1 km/h 35.4 km/h 79% 0 mm
11:09 11.1 °C 7.6 °C 1007.3 hPa South 16.1 km/h 35.4 km/h 79% 0 mm
11:19 11.3 °C 7.8 °C 1006.7 hPa South 12.9 km/h 33.8 km/h 79% 0 mm
11:24 11.3 °C 7.6 °C 1007 hPa SSE 16.1 km/h 37 km/h 78% 0 mm
11:29 11.3 °C 7.6 °C 1006.7 hPa SSW 11.3 km/h 32.2 km/h 78% 0 mm
11:34 11.3 °C 7.6 °C 1007 hPa SW 17.7 km/h 38.6 km/h 78% 0 mm
11:39 11.3 °C 7.6 °C 1006.3 hPa SSW 17.7 km/h 38.6 km/h 78% 0 mm
11:44 11.4 °C 7.7 °C 1006.3 hPa SSW 16.1 km/h 40.2 km/h 78% 0 mm
11:49 11.4 °C 7.7 °C 1006.3 hPa SSW 16.1 km/h 40.2 km/h 78% 0 mm
11:54 11.5 °C 7.8 °C 1006.7 hPa SSW 16.1 km/h 37 km/h 78% 0 mm
11:59 11.5 °C 7.8 °C 1006.3 hPa SSW 17.7 km/h 40.2 km/h 78% 0 mm
12:04 11.5 °C 7.8 °C 1006.7 hPa SSW 17.7 km/h 40.2 km/h 78% 0 mm
12:09 11.6 °C 7.8 °C 1006.7 hPa SSE 37 km/h 40.2 km/h 78% 0 mm
12:14 11.6 °C 7.8 °C 1006.7 hPa SSE 16.1 km/h 38.6 km/h 78% 0 mm
12:19 11.6 °C 7.8 °C 1006.7 hPa SSW 20.9 km/h 51.5 km/h 78% 0 mm
12:24 11.6 °C 7.8 °C 1006.7 hPa SSW 20.9 km/h 35.4 km/h 78% 0 mm
12:29 11.6 °C 7.8 °C 1006.7 hPa South 16.1 km/h 32.2 km/h 78% 0 mm
12:34 11.5 °C 7.8 °C 1006.7 hPa SSW 17.7 km/h 37 km/h 78% 0 mm
12:39 11.4 °C 7.7 °C 1006.3 hPa SSW 17.7 km/h 37 km/h 78% 0 mm
12:44 11.4 °C 7.7 °C 1006.3 hPa SSW 19.3 km/h 37 km/h 78% 0 mm
12:49 11.6 °C 8.1 °C 1006.3 hPa SSW 17.7 km/h 37 km/h 79% 0 mm
12:54 11.6 °C 8.1 °C 1006.3 hPa SSW 16.1 km/h 35.4 km/h 79% 0 mm
12:59 11.7 °C 7.9 °C 1006.3 hPa SSW 14.5 km/h 40.2 km/h 78% 0 mm
13:04 11.6 °C 7.8 °C 1006 hPa WSW 20.9 km/h 38.6 km/h 78% 0 mm
13:09 11.5 °C 7.8 °C 1006 hPa SSW 17.7 km/h 40.2 km/h 78% 0 mm
13:14 11.4 °C 7.9 °C 1006 hPa SSE 17.7 km/h 37 km/h 79% 0 mm
13:19 11.6 °C 7.8 °C 1006.3 hPa SSW 14.5 km/h 33.8 km/h 78% 0 mm
13:24 11.6 °C 7.9 °C 1006.3 hPa SW 11.3 km/h 30.6 km/h 78% 0 mm
13:29 11.6 °C 8.1 °C 1005.6 hPa SSW 12.9 km/h 30.6 km/h 79% 0 mm
13:34 11.7 °C 8.2 °C 1005.6 hPa SSW 14.5 km/h 30.6 km/h 79% 0 mm
13:39 11.7 °C 8 °C 1005.6 hPa SSW 14.5 km/h 33.8 km/h 78% 0 mm
13:44 11.6 °C 7.9 °C 1005.6 hPa SSW 14.5 km/h 33.8 km/h 78% 0 mm
13:49 11.6 °C 7.9 °C 1005.3 hPa SSW 14.5 km/h 32.2 km/h 78% 0 mm
13:54 11.6 °C 7.8 °C 1005.6 hPa SSW 14.5 km/h 32.2 km/h 78% 0 mm
13:59 11.6 °C 7.8 °C 1005.3 hPa SSW 11.3 km/h 32.2 km/h 78% 0 mm
14:04 11.5 °C 7.8 °C 1005.6 hPa WSW 8 km/h 27.4 km/h 78% 0 mm
14:09 11.4 °C 7.7 °C 1006 hPa WSW 22.5 km/h 37 km/h 78% 0 mm
14:14 10.8 °C 7.2 °C 1005.6 hPa SW 12.9 km/h 32.2 km/h 78% 0 mm
14:19 10.3 °C 6.6 °C 1006 hPa WSW 16.1 km/h 30.6 km/h 78% 0 mm
14:24 9.9 °C 6.4 °C 1006 hPa WSW 14.5 km/h 29 km/h 79% 0 mm
14:29 9.7 °C 6.4 °C 1006 hPa WSW 16.1 km/h 29 km/h 80% 0 mm
14:34 9.6 °C 6.4 °C 1006.3 hPa SW 16.1 km/h 33.8 km/h 81% 0 mm
14:39 9.4 °C 6.3 °C 1006.3 hPa WSW 14.5 km/h 33.8 km/h 81% 0 mm
14:44 9 °C 5.7 °C 1006.3 hPa WSW 16.1 km/h 29 km/h 80% 0 mm
14:49 8.8 °C 5.6 °C 1006.3 hPa WSW 16.1 km/h 27.4 km/h 80% 0 mm
14:54 8.7 °C 5.4 °C 1006 hPa SW 20.9 km/h 29 km/h 80% 0 mm
14:59 8.6 °C 5.3 °C 1006.3 hPa WSW 14.5 km/h 35.4 km/h 80% 0 mm
15:04 8.5 °C 5.1 °C 1006 hPa SSW 20.9 km/h 32.2 km/h 79% 0 mm
15:09 8.3 °C 4.9 °C 1006.3 hPa South 12.9 km/h 37 km/h 79% 0 mm
15:14 8.3 °C 4.8 °C 1006.3 hPa West 16.1 km/h 33.8 km/h 79% 0 mm
15:19 8.1 °C 4.7 °C 1006 hPa SSW 20.9 km/h 30.6 km/h 79% 0 mm
15:24 8 °C 4.4 °C 1006 hPa SW 16.1 km/h 35.4 km/h 78% 0 mm
15:29 7.9 °C 4.3 °C 1006 hPa SW 17.7 km/h 35.4 km/h 78% 0 mm
15:34 7.8 °C 4.2 °C 1005.6 hPa SW 17.7 km/h 29 km/h 78% 0 mm
15:39 7.8 °C 4.2 °C 1005.6 hPa SW 16.1 km/h 33.8 km/h 78% 0 mm
15:44 7.7 °C 4.1 °C 1005.6 hPa SW 14.5 km/h 33.8 km/h 78% 0 mm
15:49 7.7 °C 4.1 °C 1005.6 hPa SW 16.1 km/h 35.4 km/h 78% 0 mm
15:54 7.7 °C 4.3 °C 1005.6 hPa SSE 11.3 km/h 29 km/h 79% 0 mm
15:59 7.7 °C 4.3 °C 1005.6 hPa SW 14.5 km/h 29 km/h 79% 0 mm
16:04 7.7 °C 4.1 °C 1005.3 hPa SW 12.9 km/h 30.6 km/h 78% 0 mm
16:09 7.7 °C 4.1 °C 1005.3 hPa SW 24.1 km/h 33.8 km/h 78% 0 mm
16:14 7.7 °C 3.9 °C 1005.6 hPa SW 19.3 km/h 29 km/h 77% 0 mm
16:19 7.7 °C 3.8 °C 1005.6 hPa SW 6.4 km/h 29 km/h 76% 0 mm
16:24 7.7 °C 3.6 °C 1006 hPa SW 16.1 km/h 29 km/h 75% 0 mm
16:29 7.8 °C 3.6 °C 1006 hPa West 12.9 km/h 27.4 km/h 75% 0 mm
16:34 7.8 °C 3.5 °C 1006.3 hPa WSW 22.5 km/h 33.8 km/h 74% 0 mm
16:39 7.9 °C 3.6 °C 1006 hPa SW 11.3 km/h 30.6 km/h 74% 0 mm
16:44 7.9 °C 3.7 °C 1006 hPa SSW 6.4 km/h 35.4 km/h 75% 0 mm
16:49 7.9 °C 3.7 °C 1006 hPa WSW 22.5 km/h 32.2 km/h 75% 0 mm
16:54 7.9 °C 3.8 °C 1005.6 hPa WSW 14.5 km/h 32.2 km/h 75% 0 mm
16:59 7.9 °C 3.7 °C 1006 hPa WSW 14.5 km/h 32.2 km/h 75% 0 mm
17:04 7.9 °C 3.2 °C 1006 hPa SW 16.1 km/h 35.4 km/h 72% 0 mm
17:09 7.9 °C 2.9 °C 1006 hPa WSW 4.8 km/h 22.5 km/h 71% 0 mm
17:14 7.9 °C 2.9 °C 1006 hPa SSW 14.5 km/h 20.9 km/h 71% 0 mm
17:24 7.8 °C 2.4 °C 1005.6 hPa West 8 km/h 30.6 km/h 69% 0 mm
17:29 7.7 °C 2.3 °C 1006 hPa SW 11.3 km/h 29 km/h 69% 0 mm
17:34 7.7 °C 2.3 °C 1005.6 hPa WSW 12.9 km/h 29 km/h 69% 0 mm
17:39 7.7 °C 2.3 °C 1006 hPa WSW 9.7 km/h 27.4 km/h 69% 0 mm
17:44 7.8 °C 2.2 °C 1006 hPa WSW 24.1 km/h 33.8 km/h 68% 0 mm
17:49 7.8 °C 2.1 °C 1006 hPa WSW 17.7 km/h 33.8 km/h 67% 0 mm
17:54 7.8 °C 2.1 °C 1006 hPa WSW 20.9 km/h 37 km/h 67% 0 mm
17:59 7.8 °C 1.6 °C 1006 hPa WSW 19.3 km/h 37 km/h 65% 0 mm
18:04 7.8 °C 1.4 °C 1006 hPa WSW 19.3 km/h 40.2 km/h 64% 0 mm
18:09 7.8 °C 1.4 °C 1006.3 hPa SW 29 km/h 46.7 km/h 64% 0 mm
18:14 7.7 °C 1.1 °C 1006 hPa WSW 27.4 km/h 46.7 km/h 63% 0 mm
18:19 7.6 °C 1.2 °C 1006 hPa SW 9.7 km/h 40.2 km/h 64% 0 mm
18:24 7.6 °C 1.4 °C 1006.3 hPa WSW 22.5 km/h 41.8 km/h 65% 0 mm
18:29 7.4 °C 1.7 °C 1006.3 hPa West 30.6 km/h 46.7 km/h 67% 0 mm
18:34 7.3 °C 1.6 °C 1006.7 hPa WSW 33.8 km/h 54.7 km/h 67% 0 mm
18:39 7.2 °C 1.7 °C 1006.7 hPa WNW 30.6 km/h 40.2 km/h 68% 0 mm
18:44 6.9 °C 1.8 °C 1006.7 hPa WSW 22.5 km/h 41.8 km/h 70% 0 mm
18:49 6.7 °C 1.4 °C 1006.7 hPa WSW 22.5 km/h 41.8 km/h 69% 0 mm
18:54 6.6 °C 0.9 °C 1007 hPa WSW 24.1 km/h 43.5 km/h 67% 0 mm
18:59 6.4 °C 0.5 °C 1007 hPa West 24.1 km/h 48.3 km/h 66% 0 mm
19:04 6.3 °C 0.4 °C 1007.3 hPa WSW 30.6 km/h 38.6 km/h 66% 0 mm
19:09 6.2 °C 0.3 °C 1007.3 hPa WSW 20.9 km/h 38.6 km/h 66% 0 mm
19:14 6.2 °C 0.6 °C 1007.3 hPa WSW 19.3 km/h 37 km/h 67% 0 mm
19:19 6.2 °C 0.6 °C 1007.7 hPa WSW 24.1 km/h 41.8 km/h 67% 0 mm
19:24 6.2 °C 0.1 °C 1007.7 hPa SW 24.1 km/h 45.1 km/h 65% 0 mm
19:29 6.2 °C 0.1 °C 1007.7 hPa WNW 22.5 km/h 43.5 km/h 65% 0 mm
19:34 6.1 °C 0.2 °C 1007.7 hPa WSW 41.8 km/h 49.9 km/h 66% 0 mm
19:39 5.9 °C 0 °C 1007.3 hPa WSW 24.1 km/h 49.9 km/h 66% 0 mm
19:44 5.8 °C -0.1 °C 1008 hPa WSW 27.4 km/h 57.9 km/h 66% 0 mm
19:49 5.7 °C -0.3 °C 1008 hPa WSW 24.1 km/h 57.9 km/h 65% 0 mm
19:54 5.6 °C -1.1 °C 1008 hPa WSW 24.1 km/h 49.9 km/h 62% 0 mm
19:59 5.6 °C -0.7 °C 1008 hPa WNW 20.9 km/h 54.7 km/h 64% 0 mm
20:04 5.5 °C -1 °C 1008 hPa WSW 24.1 km/h 54.7 km/h 63% 0 mm
20:09 5.4 °C -1.8 °C 1008.4 hPa WSW 22.5 km/h 54.7 km/h 60% 0 mm
20:14 5.3 °C -2.3 °C 1008 hPa WSW 25.7 km/h 54.7 km/h 58% 0 mm
20:19 5.2 °C -2.9 °C 1008.4 hPa WSW 27.4 km/h 56.3 km/h 56% 0 mm
20:24 5.2 °C -2.2 °C 1008.4 hPa SW 37 km/h 57.9 km/h 59% 0 mm
20:29 5.1 °C -2 °C 1008.4 hPa WSW 19.3 km/h 49.9 km/h 60% 0 mm
20:34 5.1 °C -1.6 °C 1008.4 hPa West 24.1 km/h 45.1 km/h 62% 0 mm
20:39 5.1 °C -1.4 °C 1008.7 hPa WSW 29 km/h 41.8 km/h 63% 0 mm
20:44 4.9 °C -1.7 °C 1008.4 hPa WSW 24.1 km/h 48.3 km/h 62% 0 mm
20:49 4.8 °C -1.4 °C 1009 hPa WSW 11.3 km/h 49.9 km/h 64% 0 mm
20:54 4.6 °C -2.1 °C 1009 hPa WNW 35.4 km/h 40.2 km/h 62% 0 mm
20:59 4.4 °C -2.7 °C 1009 hPa WSW 24.1 km/h 49.9 km/h 60% 0 mm
21:04 4.3 °C -2.3 °C 1008.7 hPa WSW 27.4 km/h 64.4 km/h 62% 0 mm
21:09 4.3 °C -2.1 °C 1008.7 hPa WSW 25.7 km/h 64.4 km/h 63% 0 mm
21:14 4.3 °C -2.4 °C 1008.7 hPa WSW 25.7 km/h 61.2 km/h 62% 0 mm
21:19 4.2 °C -2.2 °C 1009 hPa WSW 24.1 km/h 61.2 km/h 63% 0 mm
21:24 4.2 °C -2.3 °C 1009 hPa WSW 22.5 km/h 49.9 km/h 63% 0 mm
21:29 4.1 °C -2.5 °C 1009 hPa WNW 33.8 km/h 45.1 km/h 62% 0 mm
21:34 4.1 °C -2.8 °C 1009.4 hPa West 29 km/h 46.7 km/h 61% 0 mm
21:39 3.9 °C -2.4 °C 1009.7 hPa WSW 32.2 km/h 45.1 km/h 63% 0 mm
21:44 3.7 °C -2.9 °C 1009.7 hPa SW 32.2 km/h 49.9 km/h 62% 0 mm
21:49 3.5 °C -2.9 °C 1010 hPa West 14.5 km/h 38.6 km/h 63% 0 mm
21:54 3.2 °C -3.8 °C 1010 hPa WSW 20.9 km/h 38.6 km/h 60% 0 mm
21:59 2.9 °C -4.5 °C 1010 hPa WSW 24.1 km/h 61.2 km/h 58% 0 mm
22:04 2.8 °C -4.6 °C 1010 hPa WSW 25.7 km/h 61.2 km/h 58% 0 mm
22:09 2.7 °C -4.7 °C 1010 hPa WSW 22.5 km/h 45.1 km/h 58% 0 mm
22:15 2.6 °C -5.3 °C 1010.4 hPa WSW 29 km/h 51.5 km/h 56% 0 mm
22:20 2.6 °C -4.7 °C 1010.4 hPa WSW 27.4 km/h 51.5 km/h 59% 0 mm
22:25 2.5 °C -4.7 °C 1010.4 hPa WSW 19.3 km/h 51.5 km/h 59% 0 mm
22:39 2.4 °C -5 °C 1010.4 hPa WSW 27.4 km/h 51.5 km/h 58% 0 mm
22:45 2.3 °C -5.6 °C 1011.1 hPa West 37 km/h 48.3 km/h 56% 0 mm
22:50 2.2 °C -5.7 °C 1010.7 hPa WNW 27.4 km/h 46.7 km/h 56% 0 mm
22:55 2.2 °C -5.5 °C 1011.1 hPa West 30.6 km/h 43.5 km/h 57% 0 mm
23:00 2.1 °C -5.8 °C 1010.7 hPa West 12.9 km/h 40.2 km/h 56% 0 mm
23:05 2.1 °C -5.6 °C 1010.7 hPa SSW 12.9 km/h 40.2 km/h 57% 0 mm
23:10 2 °C -5.6 °C 1010.7 hPa West 17.7 km/h 40.2 km/h 57% 0 mm
23:15 1.9 °C -5.7 °C 1010.7 hPa West 19.3 km/h 33.8 km/h 57% 0 mm
23:20 1.9 °C -5.5 °C 1010.7 hPa WSW 9.7 km/h 33.8 km/h 58% 0 mm
23:25 1.8 °C -5.6 °C 1011.1 hPa WSW 11.3 km/h 22.5 km/h 58% 0 mm
23:30 1.8 °C -5.4 °C 1011.1 hPa West 9.7 km/h 22.5 km/h 59% 0 mm
23:35 1.8 °C -5.3 °C 1011.1 hPa West 14.5 km/h 27.4 km/h 59% 0 mm
23:40 1.9 °C -5.4 °C 1011.1 hPa WNW 30.6 km/h 33.8 km/h 58% 0 mm
23:45 2 °C -5.4 °C 1011.1 hPa WSW 22.5 km/h 37 km/h 58% 0 mm
23:50 2 °C -5.4 °C 1010.7 hPa SW 19.3 km/h 33.8 km/h 58% 0 mm
23:55 2 °C -5.4 °C 1010.7 hPa WSW 6.4 km/h 27.4 km/h 58% 0 mm
Buffalo, New York, USA
Compliments of Weather Underground - 2.25 mb